Wind_Speed
16 15 15 15 16 17 16 16 16 16 17 18 19 20 20 19 18 17 15 14 14 13 13 14 15 15 16 17 18 21 22 22 23 24 24 24 24 23 24 24 25 25 25 25 24 23 21 20 21 23 24 25 25 24 24 25 26 27 28 29 29 28 28 23 13 9 15 20 21 23 26 26 27 28 32 35 36 37 38 37 35 34 35 35 35
15 15 15 17 17 16 17 17 18 18 19 21 21 22 22 22 20 19 18 17 16 15 15 16 17 16 17 18 19 22 24 24 24 26 27 27 26 25 25 25 25 25 26 26 25 25 23 22 22 22 23 25 25 24 24 24 25 26 28 28 28 28 27 25 18 11 13 19 21 21 23 25 27 28 31 35 37 39 39 38 37 36 36 36 36
15 15 17 17 17 17 18 19 20 21 22 22 22 22 22 22 21 21 21 21 19 18 17 17 18 18 18 19 20 23 25 24 24 26 28 28 28 27 26 26 26 26 26 27 26 26 24 23 23 23 23 25 25 25 24 24 24 25 26 27 28 29 29 29 24 16 14 19 22 23 23 25 28 29 31 35 36 37 39 40 39 38 37 37 37
15 17 18 17 17 18 19 19 20 20 21 21 21 21 21 20 21 21 22 21 21 20 18 18 19 19 19 20 20 23 25 25 26 29 30 29 28 28 27 26 25 25 25 26 26 25 24 24 25 25 23 24 26 26 25 24 24 24 25 25 26 28 29 30 29 24 19 19 21 24 25 27 29 30 30 31 33 35 39 40 40 40 40 39 38
17 18 18 18 18 19 18 18 18 19 19 19 20 20 20 20 21 21 22 22 22 22 21 19 19 19 19 20 20 22 24 24 26 30 31 30 29 27 27 26 25 25 25 25 25 25 24 24 25 25 23 23 25 26 26 24 24 24 24 25 25 27 27 28 29 28 24 20 19 21 25 26 26 28 29 30 31 32 34 37 39 40 40 40 39
18 17 17 17 18 19 19 18 18 18 18 19 20 20 21 21 22 22 23 23 24 25 23 20 19 19 19 19 20 22 25 27 29 33 33 31 30 28 26 26 26 27 26 26 25 24 24 25 25 24 23 23 25 26 27 26 25 25 25 24 24 26 27 26 26 26 25 24 21 19 22 24 23 24 28 31 31 31 32 33 35 38 38 37 37
16 16 16 16 16 17 18 18 18 18 18 19 20 21 22 22 23 23 23 24 25 26 25 22 19 19 18 19 20 23 29 32 33 35 35 31 29 28 26 26 27 26 25 25 23 21 21 22 22 22 22 23 25 27 28 27 26 26 25 24 24 25 26 26 26 25 24 24 23 20 20 23 24 23 25 30 30 31 33 28 24 30 34 35 36
15 15 15 15 15 15 16 16 17 17 18 19 20 21 22 22 23 23 23 25 25 26 26 25 22 21 20 19 20 24 32 35 35 36 36 32 28 26 26 26 25 24 24 24 23 22 22 22 21 22 22 23 25 27 27 26 26 26 25 24 24 24 24 25 25 24 23 22 22 21 20 21 22 22 23 26 24 24 29 29 25 30 33 32 34
15 14 15 15 15 13 13 13 14 15 16 18 18 19 20 21 22 23 24 25 25 24 25 25 25 25 24 23 24 27 33 35 35 36 36 32 28 26 26 25 23 23 24 25 26 25 24 24 24 24 24 24 24 24 26 26 25 26 25 24 24 25 24 24 23 22 20 19 19 20 18 18 20 20 20 23 24 23 27 29 27 29 30 28 30
14 14 15 16 14 13 12 12 13 14 16 17 17 18 19 21 23 24 25 25 25 25 25 25 26 26 27 27 27 29 32 34 34 34 35 33 30 28 26 24 23 24 24 25 27 28 27 26 26 27 28 28 26 24 24 24 25 25 24 23 24 25 23 22 22 22 20 18 19 19 16 15 19 22 22 24 28 28 27 27 25 24 25 24 23
15 16 16 16 14 13 13 13 14 15 16 16 16 17 19 22 24 25 26 27 27 27 27 27 27 27 28 28 28 30 32 33 32 32 34 33 31 29 25 23 23 25 25 25 27 29 28 28 30 31 31 32 31 28 25 23 24 25 23 23 23 25 25 23 22 22 21 19 20 20 17 16 21 25 25 26 27 27 26 28 27 23 22 19 14
17 17 17 15 14 14 14 14 15 15 15 15 16 17 19 22 24 26 27 27 28 28 29 29 29 29 29 29 29 31 34 34 33 33 33 32 31 29 25 22 22 24 25 26 27 28 27 29 32 33 33 33 31 31 31 27 25 24 24 23 22 23 25 26 25 23 22 20 20 20 20 20 22 25 28 28 28 28 27 28 28 25 24 22 18
18 18 17 16 15 15 15 15 16 16 15 15 15 16 19 22 24 25 26 27 28 29 29 29 30 30 30 31 30 31 34 36 36 35 35 33 31 30 26 22 22 23 25 26 28 28 26 28 32 36 38 37 34 34 36 33 28 24 23 23 21 21 21 24 27 28 27 25 22 23 25 24 24 27 31 31 30 29 28 28 28 27 26 27 26
18 18 17 17 16 16 16 16 16 16 15 15 16 17 19 21 23 24 25 26 27 28 28 29 30 30 30 31 32 32 34 36 37 36 37 35 33 31 27 22 21 23 24 25 28 28 27 28 31 36 41 41 37 37 37 35 32 27 24 22 21 20 19 20 23 26 30 31 27 26 29 29 29 30 31 32 32 32 30 29 30 31 30 29 28
20 19 19 18 17 17 17 17 17 17 16 16 17 18 19 20 22 23 24 25 26 27 28 28 29 30 30 31 32 33 34 35 36 37 37 37 35 33 28 23 21 23 24 25 27 28 28 28 31 35 40 41 39 38 36 34 32 28 25 23 21 20 19 18 18 19 24 30 31 30 29 29 30 30 28 29 32 34 33 32 33 32 30 26 22
21 21 21 20 19 19 18 18 19 18 18 18 19 19 19 20 20 21 22 23 25 26 27 28 29 30 30 31 32 33 34 35 35 36 37 37 37 35 29 24 22 23 25 26 27 29 29 29 32 36 39 41 40 38 36 32 29 27 25 23 21 20 20 18 16 16 18 23 27 29 27 25 25 26 27 27 30 33 32 30 28 26 22 18 16
23 23 23 22 21 20 20 20 20 20 20 20 21 20 20 19 19 20 21 23 24 26 27 28 29 30 31 32 32 33 34 35 35 35 36 36 37 36 31 25 23 23 25 26 28 31 30 29 32 37 40 42 40 38 36 31 26 24 22 21 19 20 20 18 16 15 16 18 21 24 25 25 24 23 24 24 27 31 30 26 24 24 20 14 11
24 25 24 23 22 22 21 21 22 22 22 22 22 22 21 21 20 20 21 23 24 25 26 28 29 31 32 32 33 33 33 34 34 34 35 35 36 35 31 26 24 24 25 26 29 32 32 31 33 37 40 40 40 38 36 33 30 27 22 19 17 13 12 11 10 10 11 11 12 15 18 21 23 22 21 19 22 28 31 29 27 26 22 17 13
24 25 24 23 23 23 23 23 23 23 24 24 23 23 22 21 21 21 22 23 24 25 26 28 29 31 32 32 33 34 34 34 34 34 35 35 35 35 31 26 25 26 26 27 30 33 35 35 36 37 38 39 40 39 37 35 34 32 27 19 11 5 3 2 2 2 3 3 3 3 5 8 11 14 16 16 16 22 29 30 29 29 27 22 19
23 23 23 23 23 23 23 23 23 24 25 25 25 24 23 22 22 22 22 23 24 25 26 28 29 29 31 32 33 33 33 34 34 34 34 34 35 35 33 29 26 26 26 27 30 34 36 37 38 39 39 40 41 41 39 36 34 33 32 30 21 11 8 9 8 8 9 11 10 10 9 7 5 4 5 8 11 15 21 23 22 26 29 26 23
22 22 22 22 22 22 22 22 22 23 24 24 25 25 24 24 24 24 24 24 25 25 26 27 27 28 29 30 32 32 33 34 34 34 33 34 34 35 35 32 27 24 25 27 30 33 35 36 38 39 39 40 41 42 42 40 37 34 33 31 25 16 13 16 17 17 17 18 18 17 17 15 14 13 11 8 5 6 12 16 18 20 23 23 23
20 20 20 20 20 20 21 21 21 21 22 23 24 24 24 24 24 25 25 26 27 27 27 26 26 27 28 30 31 32 33 34 34 34 33 32 33 33 33 32 29 26 26 28 30 33 34 35 37 38 38 39 41 43 44 43 42 39 34 30 27 24 22 23 24 24 24 25 26 26 24 22 21 20 19 17 14 10 5 7 14 17 18 18 18
18 18 18 17 17 17 18 18 19 20 20 21 22 23 24 24 25 26 27 28 28 28 27 27 27 27 29 30 32 32 33 34 34 34 33 32 31 31 31 31 31 30 29 29 30 33 34 35 37 38 38 39 40 42 44 44 43 42 39 35 34 33 31 28 28 29 30 30 30 30 28 25 25 24 23 22 20 16 14 9 3 9 13 14 13
16 16 15 15 14 14 14 15 16 17 18 18 19 21 22 24 26 26 27 28 28 27 27 27 27 28 29 30 31 32 32 33 34 34 34 33 32 31 31 31 32 32 32 31 31 33 35 36 37 38 39 39 40 41 42 43 43 43 43 42 40 39 37 33 30 31 33 32 29 28 27 26 25 25 24 23 22 20 18 16 11 5 0 5 7
15 14 14 13 12 12 12 12 13 14 15 16 17 19 20 22 24 25 25 26 26 26 26 27 27 28 28 29 30 31 31 32 33 33 34 35 34 33 32 32 33 33 33 33 33 34 36 36 37 39 40 40 41 41 41 42 42 43 44 44 43 42 39 35 33 34 32 29 27 26 27 27 27 27 27 25 24 22 21 20 18 16 12 8 5
15 13 12 11 11 11 11 11 11 12 13 14 15 17 18 20 21 22 22 23 24 24 25 26 27 27 27 28 29 30 30 31 31 32 33 34 35 35 34 34 35 35 35 35 35 35 37 38 38 39 39 40 40 40 40 41 42 43 42 42 42 40 38 35 34 35 32 28 26 25 26 27 28 31 33 33 31 29 26 23 23 23 20 18 18
14 12 11 10 10 10 10 10 10 11 12 13 14 15 16 16 17 18 19 21 22 24 24 25 26 26 26 26 27 29 30 30 30 31 32 32 33 33 34 34 35 36 36 35 35 35 36 38 39 40 40 40 40 41 42 42 42 42 41 40 40 39 37 34 34 34 33 29 27 26 26 28 30 32 34 35 34 32 30 28 27 26 24 25 27
14 12 11 9 9 9 9 9 10 10 11 12 13 13 13 14 14 15 16 17 19 21 22 23 24 23 23 24 26 28 29 29 29 29 29 29 30 30 31 32 33 34 35 34 34 35 37 39 41 41 42 42 41 42 42 41 40 40 40 39 39 39 38 37 36 36 34 31 31 31 31 31 31 31 32 32 32 31 31 32 30 28 28 29 27
14 12 11 9 8 8 8 8 9 9 10 11 11 11 11 11 12 13 14 15 17 18 20 21 21 21 21 22 24 26 27 27 27 26 26 27 28 28 29 29 30 32 33 34 36 37 38 39 39 38 38 38 38 39 39 39 39 40 40 40 40 39 38 38 37 36 35 33 32 33 33 32 32 31 31 31 30 29 29 31 31 30 31 31 27
13 12 11 9 9 8 8 8 8 8 9 9 10 10 10 10 11 11 12 14 15 16 18 18 19 19 20 20 21 21 22 22 22 23 24 26 27 27 27 27 28 30 31 34 36 37 37 36 36 35 34 33 33 33 34 35 36 37 39 40 40 38 37 36 36 35 35 34 33 32 32 31 31 31 31 30 30 30 29 30 30 31 30 29 27
13 12 11 10 9 8 8 8 8 8 8 7 8 8 9 9 10 11 11 12 13 14 15 16 17 18 19 19 19 18 18 19 20 22 23 24 25 27 27 28 29 29 31 34 36 36 33 32 32 32 32 31 31 30 31 31 32 34 36 37 37 36 36 35 35 36 36 36 35 33 31 29 29 29 30 30 30 31 31 31 31 31 30 28 26
14 13 12 11 10 9 9 8 8 7 7 6 6 6 7 8 9 10 11 11 12 12 13 14 15 16 17 18 18 18 18 18 19 21 22 23 24 25 26 28 29 29 31 34 35 34 32 31 30 30 30 29 29 29 30 30 31 31 32 33 34 35 35 35 36 37 37 37 37 34 30 28 27 28 29 30 31 31 31 31 30 29 28 27 26
16 14 13 12 11 10 9 8 8 7 6 5 5 5 6 7 8 9 9 10 11 12 12 12 14 15 16 17 17 18 18 17 17 19 20 22 23 23 24 27 29 29 31 33 33 32 31 31 30 30 30 29 29 29 29 30 31 31 31 31 31 33 34 36 38 39 37 37 36 35 32 30 29 28 29 29 30 30 29 29 28 28 26 25 25
17 16 15 14 12 11 10 9 8 7 6 4 3 3 4 5 6 7 8 9 10 11 12 12 12 13 14 16 17 18 18 18 17 17 18 20 22 22 23 26 28 30 31 31 30 29 30 30 30 30 31 31 30 29 29 30 30 31 31 31 32 33 33 35 36 37 37 36 36 35 34 33 32 32 31 30 28 28 28 27 27 26 24 23 22
17 17 16 14 13 11 10 9 8 7 5 4 3 2 2 3 4 5 6 8 8 9 10 11 11 11 12 13 15 16 17 18 18 17 17 18 20 21 24 27 29 30 29 29 28 28 28 28 28 28 29 30 30 30 29 29 30 30 30 30 31 32 33 33 33 33 33 34 34 33 33 33 32 31 32 31 30 27 26 25 24 24 23 22 22
17 17 16 15 13 11 10 9 8 7 5 3 2 1 1 1 2 4 4 5 6 7 8 9 10 10 10 11 12 14 16 17 18 17 17 17 19 21 24 27 28 27 27 26 26 26 26 27 27 27 27 28 29 30 30 29 29 29 29 29 29 30 31 31 31 31 32 32 32 31 32 33 32 31 31 31 30 28 26 23 21 21 20 21 21
16 17 17 16 14 12 11 10 9 8 6 5 3 1 1 2 3 4 5 5 5 6 7 8 9 9 10 10 10 12 14 15 16 17 17 18 18 20 22 23 24 24 24 23 23 24 24 25 25 25 26 26 27 28 28 28 28 28 29 29 29 29 30 29 30 30 31 31 32 31 31 30 30 30 30 29 28 28 27 25 22 20 18 17 18
16 16 16 16 15 13 12 11 10 8 7 6 5 4 2 2 3 4 5 5 6 6 6 6 7 8 9 9 9 10 12 14 15 17 18 18 19 19 20 20 21 22 21 20 21 21 22 22 23 24 24 25 25 25 25 25 26 26 27 27 28 29 30 30 30 30 30 30 30 31 30 29 28 28 28 28 27 25 24 24 23 21 19 18 17
16 14 14 15 16 14 13 11 10 8 7 6 6 6 4 2 2 2 3 4 5 7 7 6 6 7 8 9 8 9 10 13 15 16 17 17 18 18 18 18 19 19 19 18 18 19 20 20 21 23 23 23 23 23 23 23 24 24 24 24 25 27 28 29 30 30 30 29 28 28 28 27 26 24 24 24 24 23 21 20 20 19 19 19 18
17 15 14 15 16 15 14 12 10 8 7 6 6 5 5 4 2 2 2 3 4 6 8 7 6 6 7 8 7 8 9 10 12 14 14 15 15 16 16 17 17 17 17 16 17 17 18 19 20 21 23 23 23 22 22 22 22 23 22 22 23 24 25 26 27 28 28 28 28 27 26 25 24 23 22 21 21 20 19 18 17 16 17 17 17
15 15 14 13 15 16 15 13 10 9 7 6 5 5 5 4 3 3 3 3 3 4 6 7 7 7 6 6 6 7 7 8 9 11 12 13 13 13 14 14 14 14 14 15 15 16 17 17 18 19 21 23 23 22 22 22 22 23 22 22 23 23 23 24 24 25 25 25 25 25 24 23 22 21 21 20 18 17 17 16 15 14 14 14 14
14 13 13 12 14 15 15 13 11 9 7 6 5 5 5 5 4 5 5 5 5 4 4 5 6 6 5 6 6 6 6 6 7 8 9 10 11 11 12 12 12 12 12 13 13 14 15 16 16 17 19 21 22 22 22 22 22 22 22 22 23 23 23 23 23 22 22 22 23 23 22 21 20 20 19 18 18 17 17 16 15 13 12 11 10
13 12 12 12 12 14 13 12 10 8 7 6 6 6 5 5 5 6 6 7 7 5 4 4 5 6 6 5 6 6 6 5 5 6 7 8 9 9 10 11 11 10 10 10 11 12 13 14 14 15 17 19 20 20 20 20 20 20 21 21 22 22 23 23 23 22 21 20 20 21 21 20 19 18 17 17 16 16 16 17 16 15 14 11 8
13 13 12 12 12 12 12 11 9 8 6 7 7 7 7 7 7 6 7 8 7 6 5 5 6 7 7 7 7 7 6 6 5 5 5 5 6 7 8 9 9 9 9 10 10 10 11 12 12 13 14 16 18 18 18 18 18 19 19 20 21 22 23 23 23 21 20 19 19 19 19 19 19 18 17 16 15 14 15 15 15 15 15 14 12
16 14 13 12 12 12 12 11 10 9 8 7 7 8 8 8 8 7 7 8 7 7 7 6 7 8 8 9 8 8 8 7 6 6 5 4 4 5 6 7 8 8 8 9 9 9 9 10 10 10 12 13 16 17 17 16 17 17 18 18 19 21 22 22 22 20 18 17 17 17 18 18 18 17 17 16 15 14 14 14 13 13 14 14 14
17 16 14 13 12 12 12 11 11 10 9 9 8 9 9 9 9 9 8 8 8 8 8 8 8 8 8 9 9 8 8 8 8 7 7 6 5 5 5 5 6 7 7 8 8 8 8 8 8 8 10 11 13 15 16 16 15 15 16 17 17 18 19 20 20 19 17 16 16 16 16 16 17 16 15 15 14 14 14 13 13 12 12 12 12
18 17 16 13 12 11 12 12 12 12 12 11 11 10 10 10 10 9 9 9 9 9 10 10 9 9 8 8 9 9 9 9 9 9 9 9 8 7 6 6 6 6 6 7 7 8 8 8 7 7 8 9 11 13 14 15 14 14 15 15 16 16 17 18 19 19 18 16 15 15 14 15 15 15 15 14 13 13 13 13 12 12 11 10 10
18 18 16 15 13 12 12 12 13 13 13 13 13 13 13 12 12 11 10 10 10 10 11 11 11 10 9 9 9 9 10 10 10 10 9 9 9 9 9 9 8 7 7 6 7 7 7 7 7 7 7 8 9 11 12 12 12 12 14 14 15 16 16 17 17 18 17 16 16 15 15 14 14 13 14 14 14 13 12 11 11 10 10 9 9
18 18 17 16 15 14 14 14 14 14 14 14 15 15 16 16 15 14 13 12 11 11 12 12 12 11 10 10 10 10 10 10 10 10 10 10 9 10 11 11 11 10 9 8 7 7 7 7 6 6 6 7 7 8 8 9 9 10 11 12 14 15 16 16 17 17 16 16 16 16 16 16 14 12 12 13 14 14 12 12 11 10 9 8 7
19 19 18 17 16 16 15 15 15 16 15 15 15 16 17 18 18 18 16 15 14 13 14 14 13 13 12 11 11 10 10 10 10 10 10 10 10 9 10 11 12 12 12 12 10 9 8 7 6 6 5 6 6 6 5 5 6 7 9 10 11 12 13 14 15 16 16 16 15 15 15 15 14 12 11 11 12 12 12 12 12 11 9 9 8
17 18 18 17 17 16 16 16 16 16 16 16 16 17 17 19 19 20 19 18 17 17 16 15 15 15 14 13 12 12 11 11 11 11 11 11 11 10 10 11 12 13 13 14 13 12 11 10 9 7 6 6 6 6 5 5 5 6 7 7 8 9 11 12 13 14 14 15 15 15 14 13 13 12 11 10 10 10 11 11 11 10 9 9 9
Wind_Direction
68 66 63 61 58 56 56 57 58 56 54 53 51 48 43 40 37 31 26 20 14 14 14 13 14 14 13 9 6 5 3 3 3 0 356 352 348 344 340 336 334 332 329 326 324 322 316 309 305 302 300 300 298 293 286 278 270 262 258 253 244 235 228 224 227 232 230 229 225 225 227 222 217 219 221 221 221 223 224 225 225 224 222 222 222
70 65 66 66 63 62 62 63 63 61 59 56 53 51 48 45 43 40 37 32 26 25 22 19 19 20 19 15 12 9 7 7 7 4 360 356 354 353 351 347 343 339 336 332 330 328 322 312 307 305 302 300 298 297 293 286 277 265 256 251 244 238 232 228 228 225 230 233 227 225 225 218 216 221 221 219 220 221 221 221 222 223 222 222 222
74 73 75 73 69 68 66 64 63 61 59 56 54 52 49 47 44 42 41 38 34 33 31 28 26 24 22 17 12 10 7 5 4 1 358 355 353 353 354 352 348 344 339 338 337 334 328 318 310 306 303 301 298 297 296 290 282 272 262 253 244 238 234 231 230 222 223 233 229 221 219 217 218 222 222 221 220 219 219 220 221 221 221 222 223
83 83 82 77 72 70 67 64 63 60 58 55 53 51 49 46 43 41 39 37 35 34 34 33 29 25 22 17 12 9 6 3 1 359 358 357 354 353 353 351 349 346 343 341 340 336 330 322 317 313 307 303 300 298 296 291 283 273 266 259 250 242 235 232 231 226 223 232 232 224 221 220 220 221 221 218 217 218 220 219 219 219 221 221 222
89 87 84 78 73 69 67 65 63 60 58 54 52 50 48 46 43 40 38 35 34 33 33 33 30 25 21 16 13 9 4 1 359 359 359 359 357 355 353 352 351 351 349 346 342 338 335 331 327 322 313 307 305 303 298 292 286 278 269 262 255 246 237 230 229 227 225 230 232 227 223 221 220 220 217 214 213 216 219 218 217 217 220 221 221
91 88 85 80 75 71 68 67 64 62 59 56 54 52 49 47 44 42 40 38 36 35 35 34 29 25 22 18 15 10 7 5 3 2 1 360 359 359 358 358 357 354 352 349 342 337 336 338 336 329 320 313 311 311 307 299 290 283 274 265 257 248 238 233 230 227 228 232 235 229 220 216 215 215 215 213 210 209 211 214 216 216 216 218 218
94 90 87 84 81 75 71 69 68 65 62 59 57 54 52 49 47 44 43 41 40 38 38 37 31 25 22 18 15 12 12 12 9 7 6 2 0 2 3 3 360 356 352 349 345 340 336 335 333 328 323 319 317 316 315 310 300 289 277 268 262 252 239 233 232 230 228 230 233 230 220 214 212 211 213 213 211 210 208 203 202 208 213 214 213
99 92 89 89 87 82 77 73 71 67 64 61 58 55 54 51 49 47 45 45 43 41 42 41 37 33 27 22 18 16 18 16 12 10 9 6 5 6 7 5 1 357 355 353 352 351 346 341 336 331 327 324 320 315 313 313 311 302 287 271 262 254 243 234 230 228 226 225 227 227 220 216 214 211 210 209 206 207 207 201 197 204 210 212 211
101 96 92 90 89 88 83 77 72 67 63 60 56 55 54 53 52 50 48 48 46 44 44 43 40 38 34 30 25 22 21 19 16 14 12 11 11 12 12 8 1 356 355 355 354 353 351 349 345 339 335 332 326 318 310 308 310 309 299 281 265 254 246 238 231 227 225 224 225 223 216 214 212 205 201 203 203 204 205 204 205 207 207 207 209
102 99 95 92 92 89 83 78 74 69 65 60 57 55 56 56 55 53 52 51 48 46 44 43 41 38 34 31 28 24 21 19 19 19 17 16 17 18 16 9 2 0 359 356 355 354 353 351 348 344 344 344 339 329 317 307 303 304 300 289 274 259 248 240 235 230 226 224 225 221 212 210 210 205 202 206 208 208 204 201 205 205 199 199 205
103 100 96 93 91 85 81 79 76 72 68 63 59 59 59 59 58 56 55 52 50 48 46 44 41 38 35 31 27 24 21 18 19 20 19 19 20 21 19 9 4 6 4 360 357 355 353 353 351 349 348 347 343 338 330 315 303 298 295 290 280 266 253 243 237 231 226 224 225 221 214 212 211 209 211 212 210 208 204 202 204 197 187 189 194
103 98 94 92 88 83 83 82 79 76 70 65 63 63 63 62 59 57 55 52 50 49 47 44 42 39 36 32 28 25 22 20 20 19 19 20 21 23 21 12 6 7 5 3 1 358 355 353 352 352 351 347 343 342 337 326 311 298 292 288 281 271 262 254 246 236 229 225 225 222 221 221 217 212 212 212 209 208 207 206 205 198 191 193 194
102 97 92 90 87 85 85 84 81 77 70 67 68 68 65 62 59 56 54 52 51 50 47 45 43 40 37 34 29 26 24 23 23 21 20 19 21 23 22 15 8 7 5 3 2 1 357 352 351 353 355 353 349 344 339 331 319 304 293 287 278 270 268 263 255 247 240 234 228 227 228 227 224 219 216 213 209 205 204 206 206 202 200 203 204
100 95 91 89 87 86 86 85 81 76 72 71 71 70 67 64 61 57 55 53 51 49 47 45 43 40 38 35 32 28 25 24 23 22 20 20 20 21 20 15 10 9 6 3 3 3 360 356 353 353 357 358 353 346 341 333 323 311 295 287 279 270 269 269 263 255 246 239 233 233 234 233 232 230 224 217 213 209 206 207 208 206 207 210 211
98 94 90 87 86 86 85 84 82 78 74 73 72 71 69 65 62 59 56 54 52 49 47 44 42 40 38 36 33 30 26 24 22 21 19 19 20 20 18 14 10 9 8 6 5 4 2 359 356 354 358 0 356 351 347 335 323 312 296 286 279 271 267 268 270 268 256 246 239 237 239 239 238 239 234 224 222 221 219 218 217 213 209 208 206
95 91 88 85 85 85 85 84 82 79 76 74 72 70 68 66 63 60 58 57 55 51 49 45 42 40 38 36 33 30 27 24 22 21 19 19 20 19 17 14 9 7 9 8 7 7 5 2 358 359 2 2 359 357 353 341 327 317 302 287 279 272 267 263 266 273 272 261 248 241 241 242 241 242 242 237 234 230 224 221 220 211 199 192 189
93 90 87 86 85 85 86 85 82 79 76 73 71 70 69 67 64 61 60 58 56 53 50 47 44 41 39 36 32 29 27 25 23 22 20 20 21 20 18 14 10 7 8 8 9 10 9 5 2 4 6 5 4 3 360 355 347 335 315 296 284 275 266 258 257 262 267 268 259 249 245 246 245 245 245 244 243 235 222 213 210 201 191 187 185
94 91 88 87 87 86 85 84 82 79 77 74 73 72 70 68 66 64 62 60 57 54 52 50 48 44 40 37 33 30 28 26 25 24 22 22 22 22 19 15 11 8 7 8 10 12 11 9 9 9 8 8 10 10 8 7 6 359 339 308 288 275 264 257 258 264 268 273 270 260 254 254 255 256 253 248 243 232 222 215 209 199 193 196 193
98 95 92 90 89 86 84 83 81 79 77 75 74 73 72 71 69 67 66 62 59 56 54 51 48 45 41 38 35 31 29 27 27 26 24 25 25 25 23 18 13 10 8 8 9 11 12 12 13 13 12 13 16 18 17 17 16 14 8 355 340 343 0 343 314 310 325 356 353 320 292 278 272 268 264 257 245 231 224 221 214 204 202 204 193
105 101 97 94 90 87 84 83 81 80 78 76 74 73 71 71 70 68 66 63 60 57 54 51 48 45 42 38 35 32 28 27 28 28 28 28 28 28 27 23 17 13 11 11 10 10 11 12 13 15 17 19 22 23 24 25 24 23 24 21 16 21 49 66 77 80 75 72 68 65 61 46 23 350 300 274 259 242 232 228 220 211 211 209 197
113 107 101 97 93 89 85 84 82 80 79 76 74 72 70 68 68 66 64 61 59 55 52 50 48 45 42 39 36 34 31 28 29 30 31 31 30 30 29 26 21 16 14 14 13 12 11 11 13 16 20 23 25 26 28 31 32 32 32 29 26 33 61 76 79 79 78 75 72 68 64 58 52 46 39 26 351 283 250 239 232 224 220 217 209
119 113 106 101 96 91 88 86 83 81 79 77 74 71 68 66 65 64 62 59 57 54 50 48 46 44 43 40 37 35 34 32 31 31 31 31 32 32 31 28 26 24 20 18 16 15 13 12 14 18 23 27 28 29 31 33 35 36 38 40 39 39 50 64 71 72 69 64 62 59 55 52 50 47 44 42 37 27 351 268 243 236 232 229 224
126 121 114 106 100 95 91 86 83 81 78 76 74 70 67 65 63 61 59 56 54 51 48 45 43 42 41 40 38 36 34 34 33 32 31 31 31 33 33 32 32 31 28 23 19 18 18 18 19 22 27 31 31 32 33 33 35 38 42 47 47 42 42 50 58 62 61 57 55 53 49 47 47 46 46 45 46 47 42 29 306 250 240 235 238
132 127 122 115 107 101 94 88 84 80 77 75 74 71 67 64 61 59 56 54 51 48 45 42 41 39 37 36 36 35 34 34 34 34 33 33 33 34 35 36 36 36 34 29 26 24 24 24 25 27 30 33 34 35 35 34 34 38 42 47 49 45 41 42 46 52 55 54 51 49 47 47 48 47 48 50 53 57 57 55 57 57 128 219 234
135 131 127 122 115 107 99 93 87 83 79 76 73 70 66 63 61 58 55 53 50 46 43 40 39 37 35 33 33 33 33 33 33 34 34 35 35 36 37 38 39 39 37 34 32 31 31 31 31 31 31 33 35 35 35 34 36 40 42 44 46 44 40 39 43 47 48 46 47 49 48 49 51 52 54 58 59 59 60 63 67 70 74 86 92
141 137 132 128 123 113 104 97 90 85 81 76 73 70 66 63 60 57 54 51 49 46 43 40 38 36 34 33 32 32 33 32 31 32 34 34 36 37 39 40 40 40 39 38 36 35 35 34 33 32 32 33 35 36 35 34 36 40 42 42 43 42 39 37 41 45 43 39 40 45 47 49 53 55 57 58 56 54 55 60 64 65 70 78 76
150 146 141 136 130 120 109 101 93 87 83 79 76 72 69 65 61 57 53 50 49 46 43 39 37 34 33 32 32 33 33 33 31 31 31 32 34 37 38 38 38 38 37 36 35 35 35 35 35 35 34 34 35 37 37 36 36 37 39 40 41 41 40 39 41 45 44 38 35 38 41 46 51 53 53 54 53 52 55 59 60 61 65 74 74
155 152 149 145 138 129 119 108 98 91 86 82 79 76 71 66 61 56 52 50 48 47 45 42 39 36 33 31 31 32 33 33 32 31 30 31 32 35 36 36 36 36 34 34 34 35 36 36 35 35 34 34 34 34 35 35 35 35 35 37 39 40 42 42 41 42 43 41 39 38 39 42 45 48 50 51 51 53 58 60 59 60 66 71 70
159 158 156 152 146 139 130 119 108 97 90 86 82 80 76 70 64 59 56 54 51 49 48 46 44 42 39 34 30 30 31 32 32 31 31 33 34 34 35 35 36 37 38 38 38 38 36 35 33 31 31 30 30 31 30 31 33 35 35 36 36 37 38 39 38 37 39 41 42 41 40 40 42 45 49 51 51 55 60 62 61 61 65 68 66
165 165 162 157 151 142 133 127 121 108 99 92 87 83 80 74 68 63 59 57 55 52 50 48 45 44 43 40 36 33 31 30 29 28 30 33 35 37 37 37 38 39 39 40 41 39 36 34 31 29 29 28 28 28 29 30 32 34 35 36 36 35 35 35 36 37 37 39 43 46 45 43 42 44 48 50 52 56 60 63 64 64 64 64 63
172 172 170 164 158 149 138 132 128 120 111 102 93 86 82 77 72 66 61 58 56 54 52 49 45 42 41 40 39 38 35 32 29 28 29 31 34 37 38 39 40 40 40 41 42 39 35 33 31 30 30 30 28 28 29 31 32 34 35 36 35 35 35 35 36 38 39 39 42 47 49 47 46 47 49 51 53 57 60 61 64 65 64 64 64
180 178 175 171 167 160 151 142 137 133 126 116 102 89 81 77 72 66 61 58 55 52 50 48 47 44 40 37 35 34 32 30 29 30 31 32 34 38 39 40 41 40 41 43 43 40 35 32 30 29 29 30 30 30 30 32 34 35 35 35 35 34 36 37 38 41 42 41 43 45 47 48 50 50 51 53 54 56 58 59 62 64 64 65 66
184 181 177 176 175 171 165 157 151 147 142 133 118 97 80 73 67 63 60 57 54 50 45 43 43 43 42 39 36 34 31 29 27 29 30 30 33 37 41 42 42 40 40 42 42 39 36 34 31 29 29 29 30 31 33 33 35 36 36 35 35 36 39 41 42 43 44 44 45 45 45 46 49 50 52 55 56 57 59 59 61 64 64 64 65
181 179 176 176 177 176 174 171 166 160 154 147 134 110 85 68 58 53 52 51 49 46 41 38 37 38 39 40 38 37 35 32 29 28 28 29 33 36 40 43 43 42 41 41 40 38 36 35 34 33 32 31 31 32 33 33 34 36 37 38 39 41 43 45 45 45 45 45 46 46 45 46 47 47 49 53 57 60 60 60 61 63 65 66 67
181 179 177 177 177 178 180 180 178 173 165 157 147 125 90 63 47 38 37 37 36 33 32 31 30 31 33 35 37 37 36 35 34 31 29 30 32 34 36 38 39 39 41 41 40 39 38 37 36 35 34 34 34 34 34 34 33 35 37 39 41 43 45 46 47 47 47 46 46 46 47 47 48 48 49 51 54 57 60 62 64 65 69 72 73
185 184 183 184 184 183 185 188 189 188 185 182 173 156 66 33 18 8 10 16 17 16 18 18 20 23 27 30 34 36 37 37 36 35 35 34 33 32 34 35 35 36 38 39 40 41 40 39 38 38 37 37 37 36 36 35 35 35 37 38 41 43 44 45 46 47 47 47 46 46 48 48 48 50 51 51 52 53 56 60 63 66 71 76 79
190 191 191 190 190 190 193 198 201 202 205 210 216 232 320 9 3 352 347 346 348 354 359 3 9 16 21 25 29 34 37 38 36 36 37 38 36 35 34 34 34 35 37 39 41 42 41 40 39 39 38 37 37 37 36 36 36 37 38 39 40 41 42 43 45 46 47 46 45 45 48 49 48 49 50 52 52 52 52 53 57 62 69 75 81
195 197 196 195 195 197 201 206 210 213 218 226 234 243 265 331 357 356 352 349 346 343 342 347 357 7 12 16 20 27 33 36 35 34 35 35 35 35 33 32 34 36 38 40 42 43 42 40 38 36 35 33 33 34 35 36 36 37 39 40 41 41 42 42 42 43 44 45 44 44 45 48 49 49 50 51 52 52 52 51 52 56 61 66 74
201 202 200 199 200 201 204 209 215 218 222 228 232 235 243 265 314 344 354 359 2 2 357 350 348 355 3 8 10 16 25 31 31 32 32 32 32 33 32 33 35 37 39 41 41 41 41 39 35 32 31 29 29 30 32 34 35 36 37 39 40 41 41 40 40 40 40 41 42 41 42 43 46 48 50 52 52 52 53 51 51 53 56 58 64
206 206 204 203 204 205 208 212 217 219 220 225 228 228 229 235 250 284 315 334 355 9 10 4 354 351 356 1 3 6 16 26 30 30 30 30 31 31 30 31 33 35 37 38 37 36 35 33 31 30 29 28 27 28 29 31 33 34 36 39 40 40 40 39 39 38 38 37 38 38 38 39 40 43 46 49 50 51 52 53 54 55 56 58 61
204 204 205 205 206 208 210 212 217 223 227 228 223 217 216 221 233 254 274 291 314 348 5 3 354 348 350 356 359 358 4 17 26 28 29 29 29 29 29 29 30 31 33 33 32 31 30 29 29 29 28 27 28 29 29 29 30 31 34 36 38 38 38 38 37 36 36 36 35 35 35 35 36 38 41 43 46 49 52 54 55 58 59 59 59
194 196 197 199 203 208 211 213 219 225 228 222 215 212 215 222 235 252 265 275 285 303 335 345 340 338 341 348 352 352 353 1 13 22 27 28 27 28 29 27 26 26 26 26 27 27 27 27 27 27 26 27 28 29 30 30 30 30 30 32 32 32 32 32 31 31 32 33 33 33 33 32 33 36 39 41 42 45 49 51 53 55 58 59 57
190 190 191 196 202 206 207 210 217 223 223 221 220 219 222 228 241 259 270 273 273 274 289 311 319 320 323 329 337 342 342 343 349 3 17 24 25 26 26 25 24 23 21 21 22 23 23 24 26 26 26 26 26 27 27 28 27 27 28 28 28 28 27 26 25 25 25 28 30 31 31 31 32 33 36 38 41 45 47 50 52 53 56 60 63
194 192 194 201 206 205 204 208 218 224 225 227 228 226 227 234 245 262 278 279 269 259 262 282 300 307 310 314 320 326 329 327 325 332 351 9 17 20 20 20 20 20 19 18 19 20 21 23 26 27 27 26 25 24 23 23 24 25 25 25 26 27 26 25 24 23 23 25 27 29 30 30 32 33 33 33 36 40 43 44 47 49 50 53 57
199 196 198 206 211 209 209 216 225 229 229 231 233 232 234 240 249 266 285 285 268 249 251 271 288 298 305 309 310 314 320 319 315 313 316 326 347 2 8 11 12 12 13 14 15 17 19 21 25 28 27 25 22 20 19 19 20 21 22 24 24 25 25 25 25 25 25 26 28 29 29 29 31 33 33 34 34 35 38 39 40 41 42 43 46
206 203 203 209 211 210 212 217 225 230 233 236 238 240 241 245 253 267 282 285 270 252 251 264 279 289 299 303 304 307 312 312 309 307 303 298 302 318 335 348 356 359 0 2 5 8 10 12 16 21 20 17 15 14 14 15 17 19 20 22 24 24 25 25 25 27 28 29 29 29 29 29 29 29 30 34 35 35 36 39 38 38 39 37 35
211 207 207 209 210 211 214 220 226 233 238 241 244 246 246 246 251 262 274 279 270 259 255 261 270 280 289 295 297 301 306 306 304 303 299 293 288 291 298 310 325 336 342 346 350 354 358 360 360 2 4 5 7 8 9 12 17 20 21 23 25 25 26 25 25 26 28 29 29 29 26 25 26 26 25 27 31 31 32 35 36 36 38 38 34
213 210 210 212 213 216 221 227 232 237 242 245 249 250 249 248 250 257 266 270 267 260 258 259 264 273 281 286 291 296 301 303 304 304 302 296 288 283 283 286 293 303 314 325 332 336 342 347 349 349 349 353 358 3 8 13 19 23 26 29 30 30 29 28 26 26 27 28 29 30 26 23 23 24 23 24 25 25 25 27 29 31 32 34 35
212 212 214 218 221 225 230 236 241 245 248 250 251 250 249 249 251 254 260 264 263 260 259 259 262 269 275 279 284 290 296 300 303 305 306 305 298 288 282 279 279 282 288 296 307 315 320 327 334 340 341 343 348 357 5 12 19 25 30 33 34 34 33 32 30 28 27 27 27 27 26 26 26 27 28 27 26 25 24 23 23 24 24 24 28
214 216 220 224 228 233 237 241 246 250 252 253 254 252 249 249 251 253 256 259 260 259 259 260 264 267 271 273 277 283 288 292 296 299 302 306 306 300 292 285 279 277 277 279 284 291 297 302 308 317 325 331 335 341 351 1 12 19 24 28 30 31 31 31 30 29 27 27 25 22 21 23 26 29 31 29 26 24 24 23 22 22 22 21 21
218 221 226 231 236 241 244 246 248 250 252 254 254 252 249 250 251 252 253 256 259 260 261 262 265 266 268 270 273 276 281 286 289 292 296 300 303 305 303 297 289 282 277 274 275 278 281 283 285 288 296 307 314 316 319 329 342 355 4 11 15 18 19 20 22 23 23 23 23 21 18 17 18 21 22 22 22 21 20 18 17 19 22 24 23
Height
833 833 833 833 833 833 832 831 830 830 828 828 826 825 825 824 823 823 822 821 820 819 819 818 817 817 816 815 813 812 810 808 806 805 803 801 799 797 795 793 792 790 788 787 786 784 783 781 779 778 777 775 774 773 771 770 769 768 768 768 766 766 767 766 766 766 767 767 767 768 769 771 773 774 776 778 779 781 784 786 789 791 793 795 798
835 835 834 834 835 834 834 832 832 831 829 829 828 827 826 826 826 825 824 823 822 820 820 819 818 818 817 816 814 813 811 809 807 805 803 801 799 797 795 793 791 789 787 785 784 782 781 779 777 776 775 773 771 770 769 768 767 765 764 764 763 763 764 764 763 764 764 765 765 766 767 768 769 770 771 772 774 777 779 782 784 786 789 791 793
836 836 836 836 836 836 835 834 833 832 831 831 830 830 829 829 828 827 826 825 823 822 821 821 820 819 818 817 816 814 812 810 809 806 804 801 799 796 794 792 790 788 787 785 783 781 779 777 775 773 772 771 769 767 766 765 764 763 761 761 760 760 760 761 761 761 761 762 762 762 763 765 765 766 767 768 770 773 775 777 779 781 784 786 788
838 838 838 838 837 837 836 836 835 835 835 834 834 833 832 831 830 829 828 827 825 824 823 822 821 820 819 818 817 816 814 812 809 807 804 802 799 796 794 792 790 788 786 785 783 781 779 776 773 771 770 769 766 765 764 762 761 760 759 758 757 757 757 757 757 758 758 759 759 759 760 761 761 762 763 766 768 769 770 773 775 777 779 782 784
839 839 839 839 839 839 839 838 838 838 838 837 836 836 834 833 832 831 830 828 827 825 824 823 822 821 821 820 819 817 815 813 810 807 804 802 799 796 794 792 790 788 786 784 782 780 778 776 773 770 769 767 765 763 761 760 759 757 756 755 754 753 753 753 753 754 755 756 756 757 757 758 758 759 761 763 765 766 768 770 771 773 775 777 779
841 841 841 841 841 841 841 841 841 841 841 840 839 837 836 835 834 832 831 830 828 827 825 824 824 823 823 822 821 819 817 814 811 808 804 801 799 796 794 792 790 787 785 783 782 779 777 775 772 770 768 766 763 761 759 757 756 754 753 752 751 750 750 750 751 752 752 753 754 754 754 755 756 756 757 759 760 762 764 766 767 769 772 774 776
842 842 842 843 843 843 843 843 843 843 843 842 840 839 837 836 835 834 833 831 830 829 827 827 826 826 825 824 822 821 818 815 812 808 805 801 799 796 794 792 790 788 786 784 781 779 777 775 772 770 767 765 763 760 757 755 753 751 750 749 748 748 747 747 748 749 749 750 751 752 752 752 753 753 754 756 757 758 760 762 765 767 769 770 772
843 844 844 844 845 845 845 846 846 845 845 843 842 840 839 838 837 836 835 833 832 831 830 829 828 828 827 825 824 822 819 816 812 809 805 802 799 797 794 792 790 788 786 784 781 779 776 774 771 769 766 764 761 758 756 753 751 748 747 746 745 745 744 744 745 745 746 747 747 748 749 750 750 750 752 753 754 755 756 759 761 763 764 766 768
844 845 845 846 846 846 847 847 847 847 846 844 843 842 841 840 839 838 836 835 834 833 832 831 830 829 828 826 825 822 820 817 814 811 808 804 800 798 795 793 791 789 786 784 781 778 776 773 770 768 765 762 759 756 753 751 749 746 745 744 743 742 741 742 742 742 743 743 744 745 746 747 747 747 748 749 750 751 754 756 757 759 761 764 766
845 846 846 847 847 848 848 848 848 847 846 846 845 844 843 842 841 839 838 837 836 835 834 833 831 830 828 827 825 823 820 818 816 814 810 806 802 799 796 794 792 790 787 784 781 777 775 773 770 767 763 759 756 753 750 748 746 744 742 741 740 739 739 739 739 739 739 739 740 741 742 742 743 744 744 745 746 748 751 753 754 757 760 761 763
847 848 848 848 848 848 849 848 848 848 848 847 847 846 845 844 842 841 840 839 838 836 835 834 832 831 829 828 826 824 822 820 817 814 811 807 804 800 798 796 793 791 788 785 782 778 775 772 769 765 762 758 754 750 747 745 743 741 739 738 737 736 736 736 735 735 736 736 736 737 738 738 738 740 741 743 744 746 747 749 751 753 756 758 759
848 849 849 849 849 849 849 849 849 850 849 849 848 848 847 845 844 842 841 840 839 838 836 835 834 832 831 829 827 825 823 821 818 815 812 808 805 802 799 797 795 792 789 786 783 779 775 772 769 765 762 758 754 749 745 742 739 737 736 735 733 732 732 732 732 732 732 732 733 733 733 734 735 735 736 739 741 743 744 746 747 749 751 752 754
850 850 850 850 850 850 850 850 851 851 850 850 850 849 848 846 845 844 843 842 841 839 838 837 835 834 832 830 828 826 823 821 818 815 812 809 806 803 800 798 796 793 790 787 784 780 777 773 769 765 761 757 753 749 744 739 736 733 732 732 730 729 728 728 728 729 729 729 729 729 729 731 732 731 731 734 736 738 740 741 743 745 746 747 748
852 852 852 851 851 851 851 852 852 852 852 851 851 850 849 847 847 846 845 844 843 841 840 839 837 835 833 831 829 827 825 822 820 817 814 811 807 804 801 799 797 795 792 789 785 781 778 775 771 766 761 756 752 748 743 738 733 730 728 727 727 726 725 724 724 725 726 726 725 725 726 727 728 727 729 731 732 733 734 736 737 739 741 743 745
853 853 853 853 852 853 853 853 853 853 853 852 851 851 850 849 848 848 847 846 845 843 842 840 839 837 835 833 830 828 827 824 821 818 815 812 808 805 802 800 798 796 793 790 786 783 779 776 773 768 762 757 753 749 743 737 731 727 724 723 723 723 722 721 721 721 722 722 722 722 723 725 726 726 727 729 729 728 729 731 733 735 737 740 743
854 854 854 854 854 854 854 854 854 854 854 853 853 852 851 851 850 850 849 848 847 846 844 842 841 838 836 834 832 830 828 826 823 820 817 813 809 806 803 801 799 797 794 791 788 784 781 778 774 769 763 758 753 748 743 736 729 725 722 720 719 719 719 719 719 719 719 719 719 720 721 722 723 725 726 726 727 727 728 730 732 734 737 739 741
855 855 855 855 856 856 856 856 856 856 855 855 854 853 853 852 852 852 851 850 849 847 846 844 843 840 838 836 834 832 830 828 825 822 818 815 811 807 804 802 800 798 795 792 789 786 782 780 776 770 764 759 754 748 742 735 729 724 721 718 717 717 716 716 716 717 717 716 717 718 719 720 720 721 723 724 725 726 727 728 729 732 734 736 738
857 857 857 858 858 859 859 858 858 858 857 856 856 855 854 854 854 854 853 852 851 849 848 846 844 842 840 838 836 834 832 830 827 824 820 816 813 809 806 804 802 799 797 794 791 787 784 781 777 772 766 761 755 749 743 736 730 725 721 718 716 716 716 715 714 715 715 715 716 716 717 718 718 719 720 721 722 723 724 724 725 728 730 731 733
858 859 860 860 861 861 861 860 860 859 859 858 857 857 857 856 856 856 855 854 853 851 849 847 845 844 842 840 838 836 834 831 829 825 822 818 815 811 808 806 803 801 798 795 792 789 785 781 778 774 769 763 756 750 744 739 733 729 723 719 717 717 717 716 714 714 715 715 716 716 716 717 717 718 718 719 720 721 721 721 722 724 725 727 729
861 862 862 863 863 863 863 863 862 861 861 860 859 859 859 859 858 858 856 855 854 852 850 849 847 846 844 842 840 838 835 833 830 827 824 820 817 814 811 808 806 803 801 797 794 790 786 782 778 774 770 764 758 752 747 742 738 733 727 723 722 721 719 717 715 715 715 716 717 717 717 718 718 718 718 718 718 719 719 720 721 721 721 724 726
863 863 864 865 865 865 865 865 864 864 863 862 862 861 861 861 860 859 858 856 854 853 851 850 849 848 846 844 842 840 837 835 832 829 826 823 820 817 814 811 809 807 804 801 797 793 789 785 781 777 772 767 761 756 751 745 741 737 732 729 728 726 723 720 718 717 717 718 718 718 718 719 719 719 719 718 718 717 718 718 719 720 721 722 724
864 865 866 866 866 867 867 866 866 866 865 864 864 863 863 862 861 860 858 857 855 854 853 852 851 850 848 846 844 841 839 836 834 831 828 826 823 820 817 815 813 810 806 803 799 796 792 789 785 780 775 770 764 759 754 748 744 742 739 735 732 730 727 723 721 720 720 720 720 719 720 721 721 721 721 720 719 718 717 718 718 719 720 722 723
866 867 867 868 868 868 868 868 868 867 867 867 866 865 864 864 862 861 859 857 856 855 854 854 852 850 849 847 845 843 841 838 836 833 831 828 825 823 820 818 815 812 809 806 803 800 796 792 788 783 778 773 767 762 758 754 750 747 743 738 735 734 731 728 725 724 723 723 722 723 724 725 725 724 724 723 721 719 718 718 718 718 719 720 721
867 868 868 869 869 869 870 870 869 869 869 868 868 867 866 864 863 862 860 859 858 857 856 855 853 851 849 847 846 844 842 840 838 836 833 830 828 825 822 820 817 814 811 809 806 803 799 796 791 787 781 776 771 767 763 759 756 751 746 742 739 738 737 734 732 729 727 727 728 729 730 730 729 728 728 726 725 722 721 720 719 719 719 719 720
868 869 869 870 870 871 871 871 870 870 870 870 869 868 866 865 864 863 862 861 860 859 857 856 854 852 851 849 847 846 844 842 840 838 836 833 830 827 825 822 819 816 814 811 809 806 803 799 794 790 785 780 775 771 767 765 760 755 751 748 745 744 743 741 738 734 733 735 736 736 735 735 734 733 732 730 727 725 724 723 722 722 721 721 721
869 870 870 871 871 872 872 872 871 871 871 870 869 868 867 867 866 865 864 863 862 860 859 857 855 854 852 851 850 848 846 844 842 840 838 836 833 830 827 825 822 819 816 814 811 808 805 801 797 793 789 785 780 776 773 770 765 761 758 755 752 751 751 749 744 740 741 743 743 742 741 740 739 737 734 732 730 729 728 727 725 725 724 723 723
869 870 871 872 872 872 872 872 872 872 871 871 870 869 869 868 868 867 866 865 863 861 860 858 856 855 854 853 852 850 848 846 844 842 840 838 836 833 830 827 824 821 818 816 813 810 807 804 800 796 792 789 785 781 777 774 770 767 765 762 760 759 757 755 751 747 747 749 749 747 746 744 741 739 737 735 734 734 733 731 729 729 729 727 726
870 871 872 872 873 873 873 873 873 872 872 871 871 870 870 870 869 868 867 866 864 863 861 860 858 857 856 855 853 851 850 848 846 845 843 841 839 836 833 830 827 824 821 819 816 813 810 806 802 798 795 791 788 784 781 779 776 774 771 768 766 764 761 759 756 753 752 753 753 750 748 746 744 743 741 740 740 740 739 737 735 735 733 732 732
870 871 872 872 873 873 873 873 873 873 873 872 872 872 871 871 870 869 868 867 866 864 863 861 861 859 858 857 855 853 851 850 849 849 847 845 842 839 836 834 831 828 826 823 819 815 811 808 805 802 799 796 793 790 788 785 782 779 776 773 770 768 766 764 762 760 759 758 756 754 752 751 750 748 746 745 745 745 743 742 741 741 739 738 739
871 872 872 873 873 873 874 874 874 874 873 873 873 873 872 872 871 870 869 868 867 866 864 863 862 861 860 859 857 856 855 854 853 852 850 847 845 842 840 837 834 832 829 825 821 818 815 813 810 808 805 803 800 797 795 792 789 785 782 779 777 776 774 771 769 767 765 762 760 758 757 757 756 754 752 751 750 749 748 747 747 746 745 745 746
871 871 872 873 873 873 874 874 874 874 874 874 874 874 873 872 871 870 870 869 868 867 866 865 864 863 861 860 860 859 858 856 855 853 851 849 847 844 842 839 837 834 831 827 823 821 820 818 816 814 811 809 806 804 802 799 795 792 789 787 785 783 780 777 775 772 769 766 763 762 763 763 763 761 759 757 755 754 753 753 753 752 752 752 752
871 871 872 873 873 874 874 874 874 875 875 874 874 874 873 873 872 871 870 870 869 868 867 866 865 864 863 862 861 859 858 857 856 855 853 851 849 847 844 841 839 837 834 829 826 825 824 822 820 818 816 814 812 810 807 804 801 798 795 793 791 788 785 783 780 777 774 771 769 769 770 770 769 767 765 762 760 759 759 759 759 759 759 759 759
870 871 872 873 873 874 874 874 875 875 875 875 874 874 874 873 872 872 871 870 869 869 868 867 866 865 865 863 862 861 860 858 857 856 854 852 850 848 846 844 841 839 835 831 829 829 828 826 824 822 820 818 816 814 811 808 805 803 800 798 796 793 790 788 785 782 779 778 776 776 776 775 773 772 770 767 766 766 765 766 766 766 766 766 766
870 871 872 872 873 874 874 874 875 875 875 875 874 874 874 873 872 872 871 870 870 869 868 868 867 866 866 865 863 862 861 859 858 857 855 854 852 850 848 845 842 840 837 835 833 832 831 829 828 826 823 821 819 817 814 812 810 807 805 803 800 798 795 793 790 787 785 784 783 782 781 780 778 776 774 772 772 771 771 772 772 772 772 772 772
870 871 872 872 873 874 874 874 875 875 875 874 874 874 874 873 873 872 871 871 870 870 869 869 868 867 867 866 865 863 862 860 859 858 856 855 853 851 849 846 843 842 840 838 837 836 834 833 831 829 827 825 823 820 818 816 814 812 809 807 805 802 800 798 796 794 792 790 789 788 786 784 783 781 780 779 778 777 777 777 778 778 778 778 778
870 871 871 872 873 873 874 874 874 874 874 874 874 874 873 873 872 872 871 871 871 870 870 869 868 868 867 866 866 865 863 862 860 859 857 856 854 852 849 847 846 845 843 841 840 839 837 836 834 833 831 829 827 824 822 820 818 816 814 812 809 807 805 803 801 799 797 795 794 793 791 789 788 787 786 784 784 783 783 783 783 783 782 782 783
869 870 871 872 872 873 873 874 874 874 874 874 874 873 873 873 872 872 871 871 871 870 870 870 869 868 868 867 866 865 864 863 862 860 859 857 855 853 851 850 849 847 845 844 843 841 840 839 837 836 834 832 830 828 826 824 822 820 817 816 813 811 810 808 806 803 802 800 798 797 795 794 793 792 790 789 788 788 787 787 787 787 787 787 787
868 869 870 871 872 872 873 873 873 874 873 873 873 873 873 873 872 872 872 871 871 870 870 869 869 869 868 867 867 866 865 864 863 861 859 858 856 854 853 852 851 849 848 847 845 844 842 841 840 838 837 835 833 831 830 828 826 824 822 820 818 816 814 811 809 807 806 804 802 801 800 798 797 797 795 794 793 792 792 791 791 791 791 791 791
868 869 869 870 871 872 872 872 873 873 873 873 873 872 872 872 872 872 872 871 871 870 870 869 869 869 868 867 867 866 865 864 863 861 860 859 857 856 855 853 852 851 850 849 847 846 845 843 842 840 839 837 835 834 832 830 829 827 825 823 821 819 817 815 813 811 810 808 807 805 804 803 802 802 801 799 798 797 796 795 795 795 795 794 794
867 868 869 869 870 871 871 872 872 872 872 872 872 872 872 872 872 872 871 871 871 870 870 869 869 868 868 868 867 866 866 865 863 862 861 860 859 857 856 854 853 852 851 850 849 848 846 845 844 842 841 839 837 836 834 833 831 829 828 826 824 823 821 819 818 816 814 812 811 809 808 807 807 806 804 803 802 801 800 799 799 799 799 798 798
866 867 868 869 869 870 870 871 871 871 871 871 871 871 871 871 871 871 871 871 871 870 870 869 869 868 868 868 867 866 866 865 864 863 862 861 860 858 857 856 855 853 852 851 850 849 848 847 845 844 842 841 839 837 836 835 833 831 830 828 827 825 824 823 821 820 818 817 815 814 812 811 810 809 807 806 805 805 804 804 803 803 802 802 802
866 866 867 868 868 869 870 870 870 871 871 871 870 871 871 871 871 871 870 870 870 870 869 869 869 868 868 868 867 866 866 865 864 864 862 861 860 859 858 857 856 854 853 852 851 850 849 848 847 846 844 842 841 839 838 836 835 833 832 830 829 827 826 825 824 822 821 820 818 817 816 814 813 812 811 810 809 808 807 807 806 806 806 806 805
865 866 867 867 868 868 869 869 870 870 870 870 870 870 870 870 870 870 870 870 870 869 869 869 868 868 868 867 867 866 865 865 864 863 863 862 861 860 858 857 856 855 854 853 852 851 850 849 848 847 845 844 842 841 839 838 836 835 834 832 831 829 828 826 825 824 823 822 821 819 818 817 815 814 813 813 812 811 810 810 809 809 808 808 808
865 866 866 866 867 868 868 869 869 869 869 869 869 869 870 870 869 869 869 869 869 869 869 868 868 867 867 867 866 866 865 864 864 863 862 861 861 860 859 858 857 856 855 854 853 852 851 850 849 848 847 845 844 842 841 840 838 837 835 834 832 831 829 828 826 825 824 823 822 821 820 819 818 817 816 815 814 814 813 812 812 812 811 811 810
864 865 865 866 866 867 867 868 868 868 868 869 869 869 869 869 869 869 868 868 868 868 868 867 867 867 866 866 865 865 864 864 863 862 862 861 860 860 859 858 857 856 855 854 853 852 851 851 850 849 847 846 845 844 842 841 840 838 837 835 834 833 831 830 828 827 826 825 824 823 822 821 820 819 818 817 817 816 815 815 814 814 813 813 813
863 864 864 865 865 866 866 867 867 867 868 868 868 868 868 868 868 868 867 867 867 867 867 867 866 866 865 865 864 864 863 863 862 861 861 860 860 859 858 858 857 856 855 854 853 852 852 851 850 849 848 847 846 845 843 842 841 840 838 837 836 835 833 832 831 829 828 827 826 825 825 824 823 822 821 820 819 818 817 817 816 816 815 815 815
862 863 863 864 864 865 865 866 866 866 867 867 867 867 867 867 867 867 866 866 866 866 866 866 865 865 865 864 863 863 862 862 861 860 860 859 859 858 858 857 856 856 855 854 853 853 852 851 850 849 848 847 846 845 844 843 842 841 839 838 837 836 835 834 832 831 830 829 828 827 826 825 824 824 823 822 821 820 819 819 818 818 817 817 816
860 861 862 863 863 864 864 864 865 865 865 865 866 866 866 866 866 865 865 865 865 865 864 864 864 864 863 863 862 862 861 860 860 859 858 858 857 857 856 856 856 855 854 854 853 852 852 851 850 849 848 847 847 846 845 844 843 841 840 839 838 837 836 835 834 833 831 830 829 828 828 827 826 825 824 823 823 822 821 820 820 819 819 818 818
859 860 861 861 862 862 863 863 863 863 864 864 864 864 864 864 864 864 864 864 864 863 863 863 863 862 862 861 861 860 860 859 858 858 857 856 856 855 855 855 854 854 853 853 852 852 851 850 850 849 848 847 847 846 845 844 843 842 841 840 839 838 837 836 835 834 833 832 831 830 829 828 827 827 826 825 824 823 822 822 821 820 820 819 819
858 859 859 860 860 861 861 861 861 862 862 862 862 862 862 862 862 862 862 862 862 862 862 861 861 861 860 860 859 859 858 858 857 856 856 855 854 854 853 853 852 852 852 851 851 851 850 850 849 848 848 847 846 846 845 844 843 842 842 841 840 839 838 837 836 835 834 833 832 831 830 830 829 828 827 827 826 825 824 823 822 822 821 820 820
856 857 858 858 858 859 859 859 859 860 860 860 860 860 860 860 860 860 860 860 860 860 860 859 859 859 858 858 858 857 856 856 855 855 854 854 853 852 852 851 850 850 850 849 849 849 849 848 848 848 847 846 846 845 845 844 843 842 842 841 840 839 838 837 837 836 835 834 833 832 831 831 830 829 829 828 827 826 825 824 824 823 822 821 821